Location: Dehesa de la Cepeda
(40.6574°N, 4.3013°W)
Time: 04:01:38
(UTC+00:00)

ATLAS CENTAUR R/B - Pass Details

Date: 05 July 2020
Orbit: 475 x 672 km, 64.7° (Epoch: 13 July)

Event Time Altitude Azimuth Distance (km) Brightness Sun altitude
Rises 21:51:53 0° 335° (NNW) 2,560 6.3 -17.7°
Reaches altitude 10° 21:54:12 10° 346° (NNW) 1,661 4.8 -18.0°
Maximum altitude 21:57:33 32° 51° (NE) 834 2.2 -18.3°
Enters shadow 21:58:26 28° 81° (E) 916 2.2 -18.4°
